SL-16 DEB, 22613

Orbit data source: Space-Track

SL-16 DEB, 22613 is space debris in LEO originally from a launch on Fri, 26 Mar 1993 UTC launched from the Tyuratam Missile And Space Complex (TTMTR). Debris objects in space refer to the collection of defunct objects orbiting the Earth. Examples of debris include non-operational satellites, rocket bodies, and fragments generated from explosions, collisions, or faulty payload assembly.

Loading next visibility...
Identifier
22613, 1993-016X
Orbit
LEO
Country
Flag of CISCIS
Related business
Manufacturer
Unknown
Mission
Spacecraft
Bus & Motor
Unknown
Mass
Unknown
Launch date (UTC)
1993-03-26 (33 years ago)
Launch vehicle
Unknown
Launch site
Tyuratam Missile And Space Complex (TTMTR)
Object type
Payload
Rocket body
Debris
Shape & HBR
Unknown shape, 0.1 m
Radar Cross Section
Small (<0.1 m²)

Expand to show TLE details & history
Last TLE update: 14 hours ago

TLE from 14 hours ago
0 SL-16 DEB
1 22613U 93016X   25353.22150135  .00000494  00000-0  47231-3 0  9997
2 22613  71.0003 257.8645 0190112  62.1113  93.5688 13.77419138640184
Epoch: 2025-12-19T05:18Z
TLE epoch observation values (Epoch: 2025-12-19T05:18:57.716Z)
Latitude
20.90126°
Longitude
-97.45815°
Altitude
986.428 km
Speed
7.355 km/s
True Right ascension
04h 41m 23s
True Declination
20° 47' 26"
Sunlit
Object was in full shadow at epoch
Visualization orbit readout
Latitude
Unknown
Longitude
Unknown
Altitude
Unknown
Speed
Unknown
Apparent Right ascension
Unknown
Apparent Declination
Unknown
Sunlit
N/A
Visualization observer readout
Local Sidereal Time
18:11:29
Azimuth
Unknown
Elevation
Unknown
Doppler factor
Unknown
Orbital elements
Apogee altitude
1,110.732 km
Perigee altitude
831.3 km
Semi-major axis
7,349.153 km
Eccentricity
0.01901
Inclination
71.0003°
RAAN
257.8645°
Arg. of periapsis
62.1113°
True anomaly
95.73937°
Mean anomaly
93.5688°
Eccentric anomaly
94.65447°
Mean motion
3.44498 °/min
Orbital period
104.5 mins
BSTAR
0.00047231
Loading maneuver chart data...
Computing Atmospheric mass density...
Loading historical data...
Loading historical data...
Loading historical data...
Loading historical data...
Loading historical data...
Loading historical data...
Loading historical data...

Documentation

Showing up to 5 results
|